DAMPE

Last updated on Fri Dec 19 2025 00:03:36 GMT+0000 (Coordinated Universal Time)

1 41173U 15078A 25352.58962697 .00001642 00000+0 58791-4 0 9992 2 41173 97.4540 352.2604 0012444 5.2944 354.8425 15.30176560556920
UTC large
Height (km)
Speed (km/s)
/
Latitude / Longitude
Inclination (degrees)
Orbital Period (minutes)
Azimuth
Elevation
Range (km)
Doppler Factor

Next 0 passes for location: London (51.5072 / 0.1276)

Sorry there are no passes over London.